Weather in Baltinava

Latvia     56°56′48″N   27°38′41″E
temp.,
°C
wind,
m/s
gust,
m/s
humid.,
%
clouds,
%
prec.,
mm/h
press.,
hPa
HPBL,
m
20 april, tue
tue2000:00+9ene3666100 0.0 1022134
03:00+8e2577100 0.0 1021177
06:00+6e339199 0.0 102058
09:00+8e356965 0.0 1019488
12:00+12e5546100 0.1 10172070
15:00+10se4557100 0.4 10161217
18:00+9ese4564100 0.4 1015992
21:00+6ese358290 0.5 1014137
21 april, wed
wed2100:00+4e239229 0.0 101448
03:00+4e119440 0.0 101223
06:00+3nne119692 0.0 101013
09:00+7n127652 0.0 1009369
12:00+10wnw235555 0.1 10071479
15:00+11wnw3447100 0.2 10061606
18:00+12w345199 0.0 10051439
21:00+8s226598 0.0 100520
22 april, thu
thu2200:00+7ssw377670 0.0 1005130
03:00+5ssw378849 0.0 1005139
06:00+5sw398615 0.0 1006189
09:00+9sw356728 0.0 1006429
12:00+13ssw584828 0.0 10061826
15:00+11wsw786675 0.3 10061142
18:00+8sw585235 0.0 10081408
21:00+6sw386562 0.0 1009242
23 april, fri
fri2300:00+4ssw41075100 0.0 1008387
03:00+3sw51167100 0.0 1008701
06:00+1ssw49755 0.0 1008384
09:00+4ssw696454 0.0 10081123
12:00+5sw7106285 0.3 10081533
15:00+6ssw696098 0.6 10091610
18:00+7sw695611 0.4 10091591
21:00+3wsw48765 0.4 1010282
24 april, sat
sat2400:000wsw37945 0.0 1011177
03:00−1sw379713 0.0 1010182
06:00−1ssw489489 0.0 1009302
09:00+2ssw4684100 0.1 1009615
12:00+4sw557495 0.4 1008995
15:00+6sw555881 1.2 10081514
18:00+6wsw456257 0.7 10081140
21:00+2wsw338413 1.1 100940